This is the latest recevied weather packets stored in our database for station/object DL9GJ-4. If no packets are shown the sender has not sent any weather packets the latest 1 day(s).
| Time | Temp. | Humidity | Pressure | Rain* | Wind** | Luminosity | Snow |
|---|---|---|---|---|---|---|---|
| 1778079380 | 8.89° C | 53% | 1007 hPa | 0 mm | - | - | - |
| 1778079051 | 8.89° C | 50% | 1006 hPa | 0 mm | - | - | - |
| 1778078296 | 9.44° C | 47% | 1005 hPa | 0 mm | - | - | - |
| 1778077222 | 14.44° C | 35% | 1004 hPa | 0 mm | - | - | - |
| 1778074310 | 14.44° C | 51% | 1004 hPa | 0 mm | - | - | - |
| 1778072508 | 11.67° C | 41% | 1005 hPa | 0 mm | - | - | - |
| 1778068170 | 15° C | 30% | 1004 hPa | 0 mm | - | - | - |
| 1778067084 | 15° C | 31% | 1004 hPa | 0 mm | - | - | - |
| 1778064920 | 15° C | 30% | 1004 hPa | 0 mm | - | - | - |
| 1778063837 | 15.56° C | 29% | 1004 hPa | 0 mm | - | - | - |
| 1778062399 | 15.56° C | 38% | 1004 hPa | 0 mm | - | - | - |
| 1778062036 | 14.44° C | 38% | 1005 hPa | 0 mm | - | - | - |
| 1778060956 | 13.33° C | 41% | 1005 hPa | 0 mm | - | - | - |
| 1778060236 | 13.33° C | 51% | 1005 hPa | 0 mm | - | - | - |
| 1778059875 | 13.33° C | 52% | 1005 hPa | 0 mm | - | - | - |
| 1778058787 | 13.33° C | 54% | 1005 hPa | 0 mm | - | - | - |
| 1778056604 | 12.78° C | 64% | 1005 hPa | 0 mm | - | - | - |
| 1778055518 | 12.22° C | 64% | 1005 hPa | 0 mm | - | - | - |
| 1778052986 | 11.11° C | 63% | 1005 hPa | 0 mm | - | - | - |
| 1778052625 | 10.56° C | 63% | 1005 hPa | 0 mm | - | - | - |
| 1778052265 | 10.56° C | 62% | 1005 hPa | 0 mm | - | - | - |
| 1778051545 | 10.56° C | 61% | 1005 hPa | 0 mm | - | - | - |
| 1778050826 | 10° C | 61% | 1005 hPa | 0 mm | - | - | - |
| 1778049025 | 10° C | 61% | 1005 hPa | 0 mm | - | - | - |
| 1778046865 | 8.89° C | 61% | 1005 hPa | 0 mm | - | - | - |
* Rain latest hour (hover to see other rain measurements)
** Current wind speed in m/s (hover to see current wind gust speed)